GW7113 Weather Reports


time (UTC)temp
C
wind
direction
speed
KPH
gust
KPH
rain 1hr
cm
rain 24hr
cm
rain mn
cm
humidity
%
barometer
mb
20260506140153 22 182 8.0 17.7 0.03 0.13 0.13 97 1012.5
20260506135653 22 100 9.7 17.7 0.03 0.13 0.13 97 1012.4
20260506135152 22 108 12.9 14.5 0.03 0.13 0.13 97 1012.5
20260506134652 21 92 4.8 14.5 0.03 0.13 0.13 97 1012.4
20260506134153 21 121 11.3 16.1 0.03 0.13 0.13 97 1012.0
20260506133652 21 110 12.9 16.1 0.03 0.13 0.13 97 1011.7
20260506133152 21 80 8.0 14.5 0.05 0.13 0.13 97 1012.0
20260506132653 21 58 6.4 12.9 0.05 0.13 0.13 97 1011.5
20260506132153 21 87 3.2 12.9 0.05 0.13 0.13 97 1011.1
20260506131652 21 66 6.4 11.3 0.05 0.13 0.13 97 1011.4
20260506131419 21 54 6.4 11.3 0.05 0.10 0.10 97 1011.6
20260506130653 21 38 4.8 9.7 0.05 0.10 0.10 97 1011.7
20260506130411 21 81 3.2 6.4 0.05 0.10 0.10 97 1011.7
20260506125652 21 66 3.2 9.7 0.08 0.10 0.10 97 1011.8
20260506125153 21 71 4.8 9.7 0.08 0.10 0.10 97 1011.5
20260506124653 21 77 3.2 9.7 0.05 0.10 0.10 97 1011.4
20260506124153 21 75 3.2 6.4 0.08 0.10 0.10 97 1011.3
20260506123653 21 72 4.8 6.4 0.08 0.10 0.10 97 1011.3
20260506123413 21 107 1.6 3.2 0.08 0.10 0.10 96 1011.2
20260506122653 21 148 1.6 3.2 0.10 0.10 0.10 96 1011.2
20260506122412 21 159 0.0 1.6 0.08 0.08 0.08 96 1011.2
20260506121653 21 159 0.0 1.6 0.08 0.08 0.08 96 1011.2
20260506121153 21 159 0.0 3.2 0.08 0.08 0.08 96 1011.4
20260506120909 21 159 0.0 3.2 0.05 0.05 0.05 96 1011.4
20260506120153 21 157 0.0 3.2 0.05 0.05 0.05 96 1011.3
20260506115653 21 161 0.0 4.8 0.05 0.05 0.05 96 1011.2
20260506115152 21 135 3.2 4.8 0.05 0.05 0.05 96 1011.0
20260506114652 21 142 0.0 4.8 0.05 0.05 0.05 96 1011.2
20260506114419 21 142 0.0 4.8 0.03 0.03 0.03 96 1011.1
20260506113654 21 166 1.6 3.2 0.03 0.03 0.03 96 1011.1
20260506113153 21 173 1.6 1.6 0.00 0.00 0.00 96 1011.1
20260506112653 21 173 0.0 1.6 0.00 0.00 0.00 96 1011.3
20260506112153 21 173 0.0 4.8 0.00 0.00 0.00 96 1011.2
20260506111912 21 174 0.0 9.7 0.00 0.00 0.00 96 1011.1
20260506111152 21 171 3.2 12.9 0.00 0.00 0.00 97 1011.3
20260506110652 21 161 3.2 12.9 0.00 0.00 0.00 97 1011.1
20260506110153 21 167 8.0 12.9 0.00 0.00 0.00 97 1011.1
20260506105653 21 188 9.7 12.9 0.00 0.00 0.00 96 1011.1
20260506105153 21 135 8.0 9.7 0.00 0.00 0.00 96 1011.1
20260506104652 21 113 3.2 11.3 0.00 0.00 0.00 96 1011.0
20260506104153 21 113 3.2 11.3 0.00 0.00 0.00 96 1010.8
20260506103653 21 129 3.2 16.1 0.00 0.00 0.00 96 1010.8
20260506103152 21 146 6.4 16.1 0.00 0.00 0.00 96 1010.7
20260506102652 21 171 9.7 14.5 0.00 0.00 0.00 96 1010.8
20260506102152 21 175 8.0 16.1 0.00 0.00 0.00 96 1011.0
20260506101652 21 158 6.4 17.7 0.00 0.00 0.00 96 1011.0
20260506101417 21 169 9.7 17.7 0.00 0.00 0.00 96 1011.0
20260506100654 21 145 9.7 20.9 0.00 0.00 0.00 96 1011.1
20260506100153 21 155 9.7 20.9 0.00 0.00 0.00 96 1010.8
20260506095653 21 143 14.5 20.9 0.00 0.00 0.00 96 1010.5
20260506095153 21 144 14.5 22.5 0.00 0.00 0.00 96 1010.6
20260506094923 21 168 9.7 22.5 0.00 0.00 0.00 96 1010.5
20260506094152 21 142 14.5 17.7 0.00 0.00 0.00 96 1010.5
20260506093653 21 182 11.3 17.7 0.00 0.00 0.00 95 1010.5
20260506093153 21 167 8.0 29.0 0.00 0.00 0.00 95 1010.5
20260506092653 21 137 11.3 29.0 0.00 0.00 0.00 95 1010.5
20260506092153 21 160 11.3 27.4 0.00 0.00 0.00 95 1010.5
20260506091914 21 163 16.1 30.6 0.00 0.00 0.00 95 1010.4
20260506091152 21 142 16.1 30.6 0.00 0.00 0.00 95 1010.1
20260506090657 21 168 12.9 33.8 0.00 0.00 0.00 95 1010.1
20260506090411 22 188 11.3 33.8 0.00 0.00 0.00 95 1010.0
20260506085653 22 141 22.5 30.6 0.00 0.00 0.00 95 1010.0
20260506085154 22 176 20.9 27.4 0.00 0.00 0.00 95 1010.1
20260506084652 22 163 9.7 27.4 0.00 0.00 0.00 95 1010.2
20260506084152 22 168 20.9 27.4 0.00 0.00 0.00 95 1010.2
20260506083652 22 156 14.5 33.8 0.00 0.00 0.00 94 1010.0
20260506082652 22 173 14.5 29.0 0.00 0.00 0.00 95 1010.0
20260506082152 22 170 9.7 24.1 0.00 0.00 0.00 95 1010.0
20260506081653 22 155 14.5 24.1 0.00 0.00 0.00 94 1009.9
20260506081153 22 134 14.5 27.4 0.00 0.00 0.00 94 1010.0
20260506080917 22 160 16.1 27.4 0.00 0.00 0.00 94 1009.9
20260506080152 22 154 17.7 30.6 0.00 0.00 0.00 94 1010.1
20260506073153 22 157 17.7 37.0 0.00 0.00 0.00 94 1010.0
20260506072653 22 181 16.1 40.2 0.00 0.00 0.00 94 1010.3
20260506072411 22 145 24.1 40.2 0.00 0.00 0.00 94 1010.1
20260506071912 22 176 22.5 43.5 0.00 0.00 0.00 93 1010.1
20260506071153 22 164 24.1 43.5 0.00 0.00 0.00 93 1010.2
20260506070652 22 139 19.3 40.2 0.00 0.00 0.00 94 1010.2
20260506070152 22 160 20.9 40.2 0.00 0.00 0.00 94 1010.2
20260506062153 22 197 17.7 38.6 0.00 0.00 0.00 94 1010.3
20260506061653 22 151 17.7 38.6 0.00 0.00 0.00 93 1010.0
20260506061153 22 162 19.3 37.0 0.00 0.00 0.00 93 1010.0
20260506060652 22 152 24.1 37.0 0.00 0.00 0.00 94 1010.3
20260506060154 22 157 20.9 37.0 0.00 0.00 0.00 94 1010.2
20260506051152 22 156 12.9 22.5 0.00 0.00 0.00 92 1010.3
20260506050653 22 155 12.9 24.1 0.00 0.00 0.00 92 1010.5
20260506050153 22 143 14.5 24.1 0.00 0.00 0.00 92 1010.4
20260506044652 22 175 17.7 27.4 0.00 0.00 0.00 91 1010.2
20260506044152 22 159 12.9 27.4 0.00 0.00 0.00 91 1010.3
20260506043925 22 162 16.1 24.1 0.00 0.00 0.00 91 1010.4
20260506043153 22 149 11.3 24.1 0.00 0.00 0.00 90 1010.1
20260506042652 22 134 14.5 27.4 0.00 0.00 0.00 90 1010.3
20260506042412 22 186 9.7 27.4 0.00 0.00 0.00 90 1010.3
20260506041913 22 159 16.1 24.1 0.00 0.00 0.00 90 1010.3
20260506041153 22 178 17.7 27.4 0.00 0.00 0.00 89 1010.2
20260506040653 22 168 12.9 27.4 0.00 0.00 0.00 89 1010.1
20260506040152 22 169 17.7 24.1 0.00 0.00 0.00 89 1010.2
20260506035152 23 184 14.5 24.1 0.00 0.00 0.00 88 1010.1
20260506034911 23 195 14.5 24.1 0.00 0.00 0.00 88 1010.1
20260506034153 23 182 14.5 24.1 0.00 0.00 0.00 88 1010.2
20260506033913 23 164 14.5 24.1 0.00 0.00 0.00 87 1010.0
20260506033153 23 155 14.5 20.9 0.00 0.00 0.00 87 1010.2
20260506032653 23 164 12.9 20.9 0.00 0.00 0.00 87 1010.0
20260506032153 23 175 16.1 20.9 0.00 0.00 0.00 87 1010.1
20260506031653 23 158 11.3 24.1 0.00 0.00 0.00 86 1009.9
20260506031152 23 150 11.3 24.1 0.00 0.00 0.00 86 1009.8
20260506030911 23 182 12.9 24.1 0.00 0.00 0.00 86 1009.7
20260506030408 23 173 14.5 22.5 0.00 0.00 0.00 86 1009.7
20260506025914 23 150 14.5 20.9 0.00 0.00 0.00 85 1009.8
20260506025153 23 153 11.3 17.7 0.00 0.00 0.00 85 1009.7
20260506024923 23 169 11.3 20.9 0.00 0.00 0.00 84 1009.7
20260506024153 23 161 12.9 20.9 0.00 0.00 0.00 84 1009.4
20260506023652 23 156 12.9 22.5 0.00 0.00 0.00 83 1009.5
20260506023412 23 176 12.9 22.5 0.00 0.00 0.00 83 1009.3
20260506022652 23 166 12.9 20.9 0.00 0.00 0.00 83 1009.5
20260506022153 23 194 11.3 24.1 0.00 0.00 0.00 83 1009.2
20260506021652 23 169 12.9 24.1 0.00 0.00 0.00 82 1009.2
20260506021152 24 163 14.5 24.1 0.00 0.00 0.00 82 1008.9
20260506020653 23 174 9.7 22.5 0.00 0.00 0.00 82 1008.8
20260506020153 23 151 11.3 17.7 0.00 0.00 0.00 82 1008.8
20260506015652 24 167 12.9 17.7 0.00 0.00 0.00 82 1008.8
20260506015152 24 162 11.3 16.1 0.00 0.00 0.00 82 1008.8
20260506014654 24 155 9.7 16.1 0.00 0.00 0.00 82 1008.6
20260506014153 24 149 11.3 17.7 0.00 0.00 0.00 81 1008.6
20260506013652 24 178 9.7 17.7 0.00 0.00 0.00 81 1008.5
20260506013152 24 169 11.3 17.7 0.00 0.00 0.00 81 1008.3
20260506012653 25 171 9.7 17.7 0.00 0.00 0.00 80 1008.2
20260506012152 25 156 9.7 17.7 0.00 0.00 0.00 79 1008.2
20260506011653 25 170 9.7 17.7 0.00 0.00 0.00 79 1008.0
20260506011153 25 156 8.0 16.1 0.00 0.00 0.00 78 1008.2
20260506010653 25 146 11.3 16.1 0.00 0.00 0.00 77 1008.0
20260506010153 25 185 8.0 20.9 0.00 0.00 0.00 76 1008.2
20260506005652 26 138 9.7 24.1 0.00 0.00 0.00 75 1008.0
20260506005153 26 171 8.0 24.1 0.00 0.00 0.00 75 1008.2
20260506004652 26 141 14.5 24.1 0.00 0.00 0.00 74 1008.3
20260506004152 26 151 14.5 24.1 0.00 0.00 0.00 73 1008.2
20260506003653 27 170 9.7 27.4 0.00 0.00 0.00 72 1008.2
20260506003153 27 171 17.7 30.6 0.00 0.00 0.00 71 1008.3
20260506002653 27 131 11.3 30.6 0.00 0.00 0.00 69 1008.4
20260506002414 28 151 14.5 30.6 0.00 0.00 0.00 68 1008.5
20260506001653 28 177 14.5 29.0 0.00 0.00 0.00 68 1008.4
20260506001152 28 137 14.5 29.0 0.00 0.00 0.00 69 1008.4
20260506000652 28 184 17.7 24.1 0.00 0.00 0.00 69 1008.5
20260506000152 28 161 11.3 27.4 0.00 0.00 0.00 68 1008.5
20260505235652 27 160 12.9 29.0 0.00 0.00 0.00 68 1008.4
20260505235152 28 163 17.7 29.0 0.00 0.00 0.00 69 1008.5
20260505234653 28 162 17.7 24.1 0.00 0.00 0.00 68 1008.5
20260505234152 28 165 16.1 24.1 0.00 0.00 0.00 68 1008.4
20260505233652 28 166 14.5 24.1 0.00 0.00 0.00 68 1008.3
20260505232652 28 179 12.9 25.7 0.00 0.00 0.00 68 1008.4
20260505232153 28 163 14.5 25.7 0.00 0.00 0.00 67 1008.3
20260505231653 28 196 17.7 27.4 0.00 0.00 0.00 67 1008.2
20260505231153 28 181 14.5 27.4 0.00 0.00 0.00 67 1008.2
20260505230653 28 172 17.7 24.1 0.00 0.00 0.00 67 1008.2
20260505230158 28 169 16.1 25.7 0.00 0.00 0.00 66 1008.3
20260505225653 28 198 16.1 30.6 0.00 0.00 0.00 66 1008.2
20260505225153 28 180 19.3 30.6 0.00 0.00 0.00 65 1008.3
20260505224653 28 190 14.5 33.8 0.00 0.00 0.00 65 1008.0
20260505224141 29 203 17.7 33.8 0.00 0.00 0.00 64 1008.4
20260505223640 29 185 16.1 30.6 0.00 0.00 0.00 65 1008.1
20260505223140 28 204 17.7 33.8 0.00 0.00 0.00 65 1008.1
20260505222140 28 174 19.3 29.0 0.00 0.00 0.00 65 1008.0
20260505221640 29 179 19.3 27.4 0.00 0.00 0.00 65 1008.2
20260505221358 29 141 14.5 30.6 0.00 0.00 0.00 65 1008.3
20260505220903 29 170 20.9 30.6 0.00 0.00 0.00 64 1008.2
20260505220140 29 159 20.9 27.4 0.00 0.00 0.00 63 1008.4
20260505215640 29 200 14.5 29.0 0.00 0.00 0.00 64 1008.2
20260505215140 29 202 17.7 30.6 0.00 0.00 0.00 65 1008.2
20260505214641 29 161 12.9 30.6 0.00 0.00 0.00 62 1008.6
20260505214141 30 184 20.9 29.0 0.00 0.00 0.00 63 1008.6
20260505213641 29 245 16.1 29.0 0.00 0.00 0.00 63 1008.7
20260505213142 30 201 16.1 29.0 0.00 0.00 0.00 62 1008.5
20260505212641 30 149 11.3 35.4 0.00 0.00 0.00 64 1008.6
20260505212400 30 181 19.3 35.4 0.00 0.00 0.00 61 1008.6
20260505211859 30 174 17.7 27.4 0.00 0.00 0.00 63 1008.7
20260505211141 30 169 17.7 29.0 0.00 0.00 0.00 62 1008.7
20260505210900 30 180 24.1 30.6 0.00 0.00 0.00 63 1008.6
20260505210140 30 173 17.7 30.6 0.00 0.00 0.00 63 1008.8
20260505205640 30 168 24.1 30.6 0.00 0.00 0.00 63 1008.9
20260505205141 30 200 14.5 35.4 0.00 0.00 0.00 62 1008.7
20260505204641 30 184 14.5 35.4 0.00 0.00 0.00 60 1008.9
20260505204141 30 170 17.7 35.4 0.00 0.00 0.00 62 1009.2
20260505203641 30 184 17.7 35.4 0.00 0.00 0.00 61 1009.2
20260505203141 30 186 19.3 29.0 0.00 0.00 0.00 63 1009.0
20260505202908 30 184 20.9 30.6 0.00 0.00 0.00 63 1009.3
20260505202140 30 177 20.9 33.8 0.00 0.00 0.00 63 1009.3
20260505201640 30 155 19.3 33.8 0.00 0.00 0.00 62 1009.3
20260505201141 30 179 16.1 33.8 0.00 0.00 0.00 63 1009.2
20260505200641 29 148 20.9 35.4 0.00 0.00 0.00 64 1009.2
20260505200140 29 165 16.1 35.4 0.00 0.00 0.00 65 1009.3
20260505195857 29 163 19.3 33.8 0.00 0.00 0.00 63 1009.3
20260505195141 29 185 17.7 33.8 0.00 0.00 0.00 64 1009.5
20260505194640 29 159 19.3 27.4 0.00 0.00 0.00 64 1009.6
20260505194140 29 172 14.5 33.8 0.00 0.00 0.00 65 1009.7
20260505193640 29 208 19.3 33.8 0.00 0.00 0.00 63 1009.5
20260505193140 29 152 14.5 27.4 0.00 0.00 0.00 65 1009.6
20260505192641 29 151 12.9 38.6 0.00 0.00 0.00 64 1009.7
20260505192141 29 189 16.1 38.6 0.00 0.00 0.00 63 1009.7
20260505191640 29 175 27.4 38.6 0.00 0.00 0.00 65 1009.6
20260505191141 29 200 12.9 30.6 0.00 0.00 0.00 65 1009.9
20260505190141 28 183 16.1 25.7 0.00 0.00 0.00 66 1010.1
20260505185641 28 154 14.5 27.4 0.00 0.00 0.00 68 1010.1
20260505185140 28 156 12.9 27.4 0.00 0.00 0.00 66 1010.0
20260505184640 28 200 17.7 29.0 0.00 0.00 0.00 67 1010.2
20260505184140 28 186 14.5 29.0 0.00 0.00 0.00 66 1010.3
20260505183640 28 240 16.1 27.4 0.00 0.00 0.00 69 1010.3
20260505183140 28 181 16.1 27.4 0.00 0.00 0.00 67 1010.3
20260505182641 28 190 14.5 33.8 0.00 0.00 0.00 67 1010.5
20260505182142 27 158 12.9 33.8 0.00 0.00 0.00 68 1010.5
20260505181641 27 151 14.5 30.6 0.00 0.00 0.00 68 1010.6
20260505181141 27 156 16.1 37.0 0.00 0.00 0.00 69 1010.4
20260505180641 27 195 11.3 37.0 0.00 0.00 0.00 70 1010.4
20260505180141 27 206 14.5 33.8 0.00 0.00 0.00 71 1010.6
20260505175641 26 191 14.5 29.0 0.00 0.00 0.00 70 1010.8
20260505175406 27 181 12.9 25.7 0.00 0.00 0.00 71 1010.7
20260505174640 26 187 9.7 25.7 0.00 0.00 0.00 71 1011.0
20260505174403 26 181 17.7 30.6 0.00 0.00 0.00 72 1011.0
20260505173907 26 174 12.9 30.6 0.00 0.00 0.00 72 1010.8
20260505173141 25 193 19.3 25.7 0.00 0.00 0.00 75 1010.8
20260505172641 25 166 14.5 30.6 0.00 0.00 0.00 73 1011.2
20260505172141 25 173 9.7 30.6 0.00 0.00 0.00 75 1011.1
20260505171903 25 184 11.3 29.0 0.00 0.00 0.00 75 1011.1
20260505171141 25 161 9.7 30.6 0.00 0.00 0.00 76 1011.2
20260505170641 25 157 22.5 38.6 0.00 0.00 0.00 78 1011.1
20260505170359 25 166 17.7 38.6 0.00 0.00 0.00 77 1011.3
20260505165641 25 207 12.9 35.4 0.00 0.00 0.00 77 1011.2
20260505165140 24 196 19.3 33.8 0.00 0.00 0.00 79 1011.2
20260505164640 24 209 12.9 30.6 0.00 0.00 0.00 78 1011.1
20260505164141 24 200 19.3 30.6 0.00 0.00 0.00 81 1010.8
20260505163641 23 184 9.7 29.0 0.00 0.00 0.00 82 1011.2
20260505163406 23 192 19.3 30.6 0.00 0.00 0.00 83 1011.1
20260505162641 23 184 16.1 30.6 0.00 0.00 0.00 82 1011.0
20260505162141 22 150 14.5 29.0 0.00 0.00 0.00 84 1010.8
20260505161641 22 205 19.3 30.6 0.00 0.00 0.00 85 1011.0
20260505161401 22 205 19.3 30.6 0.00 0.00 0.00 85 1011.1
20260505160641 22 192 16.1 29.0 0.00 0.00 0.00 85 1011.1
20260505160406 22 184 17.7 35.4 0.00 0.00 0.00 86 1011.0
20260505152641 21 198 22.5 33.8 0.00 0.00 0.00 90 1010.8
20260505152141 21 182 19.3 30.6 0.00 0.00 0.00 91 1010.7
20260505151641 20 175 17.7 27.4 0.00 0.00 0.00 91 1010.8
20260505151402 20 197 19.3 29.0 0.00 0.00 0.00 91 1011.0
20260505150640 20 161 9.7 35.4 0.00 0.00 0.00 91 1011.0
20260505150141 20 168 22.5 40.2 0.00 0.00 0.00 91 1010.6
20260505140640 20 200 20.9 46.7 0.00 0.00 0.00 94 1009.8